[[{"header":{"parameterUnit":"m.s-1","parameterCategory":1,"la1":30.2991,"la2":30.254,"lo1":-89.0895,"lo2":-89.0444,"dy":0.0017,"dx":0.0017,"nx":28,"ny":28,"refTime":"2024-06-02T21:00:00:Z","depth":0,"parameterNumber":2,"parameterNumberName":"U-component_of_WINDS"},"data":[0,0,0,0,0,0,0,0,0,0,0,0,0,0,0,0,0,0,0,0,0,0,0,0,0,0,0,0,0,0,0,0,0,0,0,0,0,0,0,0,0,0,0,0,0,0,0,0,0,0,0,0,0,0,0,0,0,0,-0.7326,-0.7326,0,-0.731,-0.731,-0.731,-0.7297,-0.7297,-0.7297,-0.7297,-0.7279,-0.7279,-0.7279,0,0,0,0,0,0,0,0,0,0,0,0,0,-0.7346,-0.7345,-0.7326,-0.7326,-0.7326,-0.731,-0.731,-0.731,-0.7297,-0.7297,-0.7297,-0.7297,-0.7279,-0.7279,-0.7279,0,0,0,0,0,0,0,0,0,0,0,0,0,-0.7334,-0.7345,-0.7326,-0.7318,-0.7317,-0.731,-0.731,-0.731,-0.7297,-0.7297,-0.7297,-0.7297,-0.728,-0.7279,-0.7279,-0.7279,0,0,-0.7277,-0.7277,0,0,0,0,0,0,0,0,-0.7335,-0.7333,-0.7319,-0.7318,-0.7317,-0.7306,-0.731,-0.7299,-0.7297,-0.7305,-0.7297,-0.7297,-0.7288,-0.7287,-0.7284,-0.7278,-0.7277,-0.7277,-0.7277,-0.7276,-0.7276,0,0,0,0,0,0,0,-0.7336,-0.7334,-0.732,-0.7319,-0.7318,-0.7315,-0.7313,-0.7308,-0.7298,-0.7304,-0.7303,-0.7301,-0.7288,-0.7285,-0.7284,-0.7277,-0.7277,-0.7276,-0.7276,-0.7276,-0.7271,-0.7271,0,0,0,0,0,0,-0.7338,-0.7335,-0.732,-0.7319,-0.7326,-0.7314,-0.7312,-0.7309,-0.7298,-0.7296,-0.7302,-0.7301,-0.7286,-0.7284,-0.7283,-0.7283,-0.7276,-0.7276,-0.7276,-0.7271,-0.7271,-0.7271,0,0,0,0,0,0,-0.7338,-0.7337,-0.7321,-0.7327,-0.7325,-0.7314,-0.7311,-0.7309,-0.7306,-0.7296,-0.7294,-0.7301,-0.7286,-0.7284,-0.728,-0.7282,-0.7276,-0.7275,-0.7271,-0.7271,-0.7271,-0.7282,0,0,0,0,0,0,-0.7339,-0.7337,-0.7337,-0.7327,-0.7324,-0.7319,-0.7311,-0.7309,-0.7306,-0.7305,-0.7294,-0.7293,-0.7285,-0.7281,-0.728,-0.7281,-0.7275,-0.727,-0.7271,-0.7271,-0.7282,-0.7283,-0.7284,0,0,0,0,0,-0.734,-0.734,-0.7337,-0.7335,-0.7324,-0.7319,-0.7317,-0.7309,-0.7306,-0.7306,-0.7299,-0.7293,-0.7282,-0.7281,-0.7279,-0.7281,-0.727,-0.7271,-0.7271,-0.7281,-0.7283,-0.7284,0,0,0,0,0,0,-0.735,-0.7339,-0.7335,-0.7333,-0.7327,-0.7317,-0.7316,-0.7311,-0.7306,-0.7305,-0.7295,-0.7293,-0.729,-0.7285,-0.7284,-0.7281,-0.7275,-0.7276,-0.7284,-0.7285,-0.7286,-0.7287,-0.7274,0,0,0,0,0,-0.7352,-0.7349,-0.7339,-0.7338,-0.7335,-0.7327,-0.7324,-0.7318,-0.7312,-0.7309,-0.7302,-0.7296,-0.7291,-0.7288,-0.7283,-0.7281,-0.7279,-0.7281,-0.7283,-0.7284,-0.7284,-0.7283,-0.7284,-0.7273,-0.7273,-0.7273,0,0,-0.7357,-0.735,-0.7348,-0.734,-0.7335,-0.7332,-0.7324,-0.7321,-0.7318,-0.7308,-0.7305,-0.7299,-0.7292,-0.7289,-0.7288,-0.7285,-0.7286,-0.7284,-0.7285,-0.7284,-0.7283,-0.7284,-0.7285,-0.7273,-0.7273,-0.7273,0,0,-0.7363,-0.7357,-0.7356,-0.7351,-0.7344,-0.7338,-0.7338,-0.7328,-0.7325,-0.7321,-0.7313,-0.731,-0.7302,-0.7297,-0.7293,-0.7299,-0.7293,-0.7297,-0.7303,-0.7302,-0.7303,-0.7304,-0.7305,-0.7306,-0.7298,-0.7298,-0.7298,0,-0.7368,-0.7363,-0.7356,-0.7353,-0.735,-0.7341,-0.734,-0.7335,-0.7327,-0.7324,-0.7322,-0.7312,-0.7306,-0.7302,-0.7304,-0.7301,-0.73,-0.7298,-0.7304,-0.7304,-0.7305,-0.7306,-0.7307,-0.7298,-0.7298,-0.7298,-0.7298,0,-0.7371,-0.7368,-0.7367,-0.736,-0.7356,-0.7354,-0.7346,-0.7344,-0.7339,-0.7334,-0.733,-0.7323,-0.7317,-0.7316,-0.7311,-0.7311,-0.731,-0.7306,-0.73,-0.7307,-0.7308,-0.7308,-0.7299,-0.7299,-0.7299,-0.7299,0,0,-0.7382,-0.7371,-0.7371,-0.7368,-0.7359,-0.7356,-0.7354,-0.7348,-0.7347,-0.7341,-0.7339,-0.7333,-0.7329,-0.7325,-0.7319,-0.7319,-0.7323,-0.7315,-0.7314,-0.7316,-0.7324,-0.7327,-0.7328,-0.732,-0.732,-0.732,-0.7324,0,-0.7386,-0.7382,-0.7375,-0.7373,-0.737,-0.7362,-0.736,-0.7355,-0.735,-0.7347,-0.7341,-0.7337,-0.7333,-0.733,-0.7329,-0.7323,-0.7325,-0.7323,-0.7317,-0.7317,-0.7319,-0.7328,-0.7331,-0.7336,-0.7325,-0.7325,-0.7325,0,-0.739,-0.7386,-0.7383,-0.7376,-0.7374,-0.7373,-0.7367,-0.7364,-0.7358,-0.7355,-0.7351,-0.7345,-0.7342,-0.7338,-0.7334,-0.7333,-0.733,-0.7327,-0.7327,-0.7326,-0.7321,-0.7327,-0.7337,-0.7337,-0.7326,-0.7326,-0.7326,0,-0.7398,-0.7392,-0.7389,-0.7387,-0.7378,-0.7377,-0.7373,-0.7367,-0.7364,-0.736,-0.7358,-0.7353,-0.735,-0.7346,-0.7339,-0.7337,-0.7336,-0.7331,-0.7333,-0.7333,-0.7332,-0.7332,-0.7342,-0.7332,-0.7332,-0.7332,-0.7332,0,-0.7403,-0.7402,-0.7393,-0.7391,-0.739,-0.7383,-0.7381,-0.7377,-0.7372,-0.7369,-0.7363,-0.736,-0.7352,-0.7349,-0.7343,-0.7341,-0.734,-0.7336,-0.7335,-0.7337,-0.7337,-0.7334,-0.7334,-0.7332,-0.7332,-0.7332,-0.7332,0,-0.7412,-0.7406,-0.7402,-0.7395,-0.7393,-0.7392,-0.7385,-0.7384,-0.7379,-0.7376,-0.7375,-0.7367,-0.7363,-0.7356,-0.735,-0.7346,-0.7345,-0.7342,-0.7347,-0.7346,-0.7348,-0.7347,-0.7355,-0.7356,-0.7346,-0.7346,-0.7346,0,-0.7415,-0.7414,-0.7406,-0.7404,-0.7401,-0.7398,-0.7395,-0.7388,-0.7386,-0.738,-0.7379,-0.7374,-0.737,-0.7364,-0.7358,-0.7353,-0.735,-0.7354,-0.735,-0.7352,-0.735,-0.735,-0.735,-0.7354,-0.7354,-0.7354,-0.7355,0,-0.7421,-0.7419,-0.7415,-0.7411,-0.7408,-0.7404,-0.74,-0.7399,-0.7391,-0.7389,-0.7385,-0.7382,-0.7376,-0.7371,-0.7366,-0.7362,-0.7357,-0.7356,-0.7356,-0.7358,-0.736,-0.7358,-0.7349,-0.7356,-0.7356,-0.7355,-0.7355,-0.7355,-0.7427,-0.7426,-0.742,-0.7417,-0.7413,-0.741,-0.7408,-0.7403,-0.74,-0.7395,-0.7391,-0.7387,-0.7382,-0.7374,-0.7371,-0.7368,-0.7365,-0.7366,-0.7366,-0.7366,-0.7366,-0.7361,-0.7367,-0.7367,-0.7367,-0.7367,-0.7367,0,-0.7433,-0.7429,-0.7426,-0.7421,-0.7418,-0.7414,-0.741,-0.7408,-0.7405,-0.74,-0.7397,-0.7393,-0.7389,-0.7382,-0.7378,-0.7377,-0.7374,-0.7376,-0.7375,-0.7375,-0.7369,-0.7369,-0.7378,-0.7378,-0.7378,-0.7378,-0.7378,-0.7378,-0.7435,-0.7433,-0.743,-0.7426,-0.7422,-0.7419,-0.7417,-0.7414,-0.741,-0.7406,-0.7403,-0.7399,-0.7394,-0.7389,-0.7385,-0.7384,-0.7382,-0.7384,-0.7382,-0.7376,-0.7375,-0.7374,-0.7374,-0.7384,-0.7384,-0.7388,-0.7388,-0.7388]},{"header":{"parameterUnit":"m.s-1","parameterCategory":1,"la1":30.2991,"la2":30.254,"lo1":-89.0895,"lo2":-89.0444,"dy":0.0017,"dx":0.0017,"nx":28,"ny":28,"refTime":"2024-06-02T21:00:00:Z","depth":0,"parameterNumber":3,"parameterNumberName":"V-component_of_WINDS"},"data":[0,0,0,0,0,0,0,0,0,0,0,0,0,0,0,0,0,0,0,0,0,0,0,0,0,0,0,0,0,0,0,0,0,0,0,0,0,0,0,0,0,0,0,0,0,0,0,0,0,0,0,0,0,0,0,0,0,0,2.3008,2.3006,0,2.2818,2.2816,2.2814,2.2731,2.2732,2.2732,2.2732,2.2531,2.2526,2.252,0,0,0,0,0,0,0,0,0,0,0,0,0,2.3295,2.329,2.3008,2.3006,2.3004,2.2818,2.2816,2.2813,2.2731,2.2732,2.2732,2.2732,2.2533,2.2526,2.252,0,0,0,0,0,0,0,0,0,0,0,0,0,2.3144,2.3289,2.3009,2.2941,2.2933,2.2819,2.2816,2.2812,2.2731,2.2732,2.2732,2.2733,2.2535,2.2527,2.2519,2.2457,0,0,2.2493,2.2489,0,0,0,0,0,0,0,0,2.3153,2.3134,2.2953,2.2945,2.2936,2.2799,2.2843,2.2693,2.2731,2.2807,2.2732,2.2733,2.262,2.2604,2.2567,2.2447,2.2439,2.2492,2.2487,2.2483,2.2481,0,0,0,0,0,0,0,2.3163,2.3141,2.2933,2.295,2.294,2.2918,2.2897,2.2814,2.2713,2.2801,2.2794,2.2773,2.2615,2.2576,2.2562,2.2436,2.2492,2.2485,2.248,2.2476,2.2254,2.2253,0,0,0,0,0,0,2.3186,2.3151,2.2939,2.2927,2.3048,2.2912,2.2889,2.2842,2.2714,2.2695,2.2773,2.277,2.259,2.2572,2.2554,2.2472,2.2483,2.2475,2.2471,2.2255,2.2254,2.2253,0,0,0,0,0,0,2.3192,2.3168,2.2946,2.3037,2.3007,2.2907,2.2855,2.2838,2.2799,2.2693,2.2674,2.2752,2.2589,2.2566,2.2482,2.2464,2.2472,2.2464,2.2256,2.2255,2.2254,2.2309,0,0,0,0,0,0,2.3201,2.3171,2.3147,2.3037,2.3003,2.2879,2.2854,2.2834,2.2785,2.278,2.2668,2.265,2.2588,2.2495,2.2473,2.2453,2.2457,2.2257,2.2255,2.2254,2.2308,2.231,2.2311,0,0,0,0,0,2.3212,2.3169,2.3147,2.3122,2.2972,2.2878,2.2858,2.279,2.2784,2.2759,2.2691,2.2653,2.247,2.2487,2.2462,2.2439,2.2258,2.2256,2.2254,2.2308,2.231,2.2311,0,0,0,0,0,0,2.3278,2.3154,2.3127,2.3048,2.2975,2.2865,2.2831,2.2794,2.2719,2.2717,2.2633,2.2609,2.2531,2.2476,2.2497,2.2371,2.2361,2.2354,2.241,2.2411,2.2412,2.2426,2.245,0,0,0,0,0,2.3284,2.322,2.3114,2.3055,2.3019,2.2932,2.2888,2.2842,2.2762,2.273,2.2655,2.2577,2.2501,2.2453,2.2378,2.2301,2.2274,2.2272,2.2274,2.2275,2.227,2.2224,2.2221,2.2247,2.2247,2.2247,0,0,2.3294,2.3219,2.3183,2.3066,2.3004,2.2938,2.2906,2.2837,2.2787,2.2718,2.2634,2.2577,2.2484,2.2403,2.2363,2.2354,2.2257,2.2273,2.2275,2.2268,2.2222,2.2219,2.2217,2.2246,2.2246,2.2246,0,0,2.3279,2.3217,2.316,2.3099,2.3005,2.2947,2.2934,2.2829,2.2789,2.2704,2.2651,2.2589,2.2462,2.2397,2.2348,2.231,2.2272,2.2288,2.2295,2.2251,2.2249,2.2247,2.2232,2.2228,2.2283,2.2283,2.2283,0,2.3304,2.3204,2.3135,2.307,2.3019,2.2957,2.2898,2.2841,2.2727,2.2693,2.2686,2.2524,2.2457,2.236,2.2351,2.2313,2.2294,2.2299,2.2255,2.2252,2.2249,2.2234,2.2229,2.2286,2.2285,2.2285,2.2285,0,2.3238,2.317,2.3135,2.3029,2.2974,2.2913,2.2833,2.2786,2.2745,2.2687,2.2601,2.2518,2.2425,2.2399,2.2357,2.2295,2.2293,2.2272,2.2259,2.225,2.2234,2.2228,2.2289,2.2288,2.2287,2.2287,0,0,2.3258,2.3116,2.3104,2.3055,2.2948,2.2893,2.2828,2.2739,2.2699,2.2623,2.2565,2.2459,2.2439,2.2383,2.2334,2.2296,2.2269,2.2279,2.2275,2.2279,2.2194,2.221,2.2204,2.2245,2.2243,2.2242,2.2201,0,2.3228,2.3111,2.3047,2.2955,2.2891,2.2831,2.2774,2.2701,2.2646,2.2581,2.2519,2.2445,2.2424,2.239,2.235,2.2282,2.2251,2.2284,2.2187,2.2185,2.2211,2.2196,2.2212,2.2178,2.2195,2.2194,2.2193,0,2.3177,2.3104,2.3007,2.2907,2.2877,2.2827,2.274,2.268,2.2596,2.2558,2.2497,2.2448,2.2375,2.237,2.2267,2.2291,2.2248,2.2208,2.2205,2.2192,2.2188,2.2181,2.2165,2.216,2.2183,2.2184,2.2184,0,2.32,2.3077,2.3003,2.2963,2.2845,2.2811,2.276,2.2676,2.2627,2.2551,2.2517,2.2433,2.2386,2.2321,2.2251,2.2253,2.2154,2.2143,2.2119,2.2121,2.2099,2.2102,2.2075,2.2075,2.2075,2.2075,2.2075,0,2.3172,2.3115,2.3012,2.2966,2.2899,2.2826,2.2762,2.2706,2.2632,2.2573,2.2515,2.2461,2.2372,2.2305,2.2249,2.2172,2.2152,2.2117,2.2103,2.2122,2.2126,2.2091,2.2091,2.2074,2.2074,2.2074,2.2074,0,2.3186,2.3115,2.303,2.2926,2.2899,2.2854,2.2764,2.2716,2.2659,2.2585,2.2563,2.2471,2.239,2.2314,2.2205,2.2168,2.209,2.2072,2.2119,2.211,2.209,2.2093,2.2039,2.2027,2.2037,2.2037,2.2037,0,2.3172,2.3127,2.3019,2.2976,2.2927,2.2859,2.2809,2.2735,2.2684,2.2585,2.2549,2.2465,2.2393,2.2266,2.2188,2.2104,2.2083,2.207,2.207,2.209,2.2081,2.2084,2.2078,2.2071,2.2071,2.2071,2.2072,0,2.3155,2.3123,2.3054,2.2972,2.2915,2.2847,2.2776,2.2744,2.2656,2.2602,2.252,2.2465,2.2355,2.227,2.2178,2.2123,2.2082,2.2073,2.2062,2.208,2.2109,2.2091,2.2121,2.2074,2.2073,2.2073,2.2073,2.2073,2.3153,2.311,2.3028,2.2953,2.2893,2.2828,2.2779,2.2716,2.2646,2.2552,2.2512,2.2429,2.2344,2.2216,2.2162,2.2094,2.2084,2.207,2.2066,2.2063,2.2066,2.2122,2.2077,2.2077,2.2076,2.2076,2.2076,0,2.3132,2.3077,2.3009,2.2913,2.2854,2.2823,2.2744,2.2695,2.2623,2.2549,2.248,2.2385,2.2303,2.222,2.2133,2.2095,2.2073,2.2074,2.2075,2.2063,2.208,2.2097,2.2093,2.2093,2.2093,2.2093,2.2093,2.2093,2.3114,2.3039,2.2997,2.2891,2.2835,2.2754,2.2711,2.2651,2.2592,2.2489,2.2421,2.2369,2.229,2.2197,2.212,2.2098,2.2067,2.2073,2.2045,2.2063,2.2062,2.2061,2.2077,2.2068,2.2068,2.2033,2.2033,2.2033]}]]